Location: Gayan
(43.3077°N, 0.0430°E)
Time: 17:36:48
(UTC+00:00)

Daily predictions for brighter satellites

Satellite Brightness Start Highest point End
(mag) Time Altitude Azimuth Time Altitude Azimuth Time Altitude Azimuth
COSMOS 2487 4.2 17:21:30 10° NW 17:24:44 38° WSW 17:27:56 10° S
Atlas Centaur 2 4.4 17:18:38 10° SW 17:25:07 27° SSE 17:31:52 10° ESE
Cosmos 1300 2.9 17:21:42 10° S 17:25:23 50° E 17:29:06 10° NNE
FALCON 9 DEB 3.2 17:22:31 10° WSW 17:25:44 66° NNW 17:28:57 10° NE
Milstar 3 4.5 17:20:33 10° SW 17:26:20 23° S 17:31:26 10° SE
Lacrosse 5 3.8 17:23:36 10° NW 17:27:03 18° N 17:30:30 10° NE
Cosmos 1606 Rocket 3.5 17:23:47 10° S 17:28:06 72° E 17:32:31 10° NNE
Cosmos 1697 Rocket 3.9 17:24:30 10° SE 17:28:27 20° E 17:32:26 10° NE
FALCON 9 DEB 3.4 17:25:40 10° WSW 17:28:50 58° NNW 17:31:59 10° NE
CZ-4 R/B 2.9 17:26:39 10° ESE 17:28:59 15° ENE 17:31:17 10° NNE
SMAP 3.1 17:25:12 10° SSE 17:29:51 87° WSW 17:34:33 10° NNW
Cosmos 2058 4.4 17:30:31 10° NNE 17:33:07 16° ENE 17:35:43 10° ESE
SAR-Lupe-4 4.1 17:32:19 10° NNE 17:35:43 39° E 17:39:04 10° S
Cosmos 1110 Rocket 4.4 17:31:15 10° SSW 17:36:28 67° WNW 17:41:41 10° NNE
CZ-2D R/B 4.3 17:33:49 10° ESE 17:36:53 24° ENE 17:39:59 10° NNE
Cosmos 1302 Rocket 4.1 17:33:27 10° S 17:38:37 61° ESE 17:43:50 10° NNE
SKYMED 2 4.1 17:35:16 10° NNE 17:39:18 36° E 17:43:18 10° SSE
ERS-2 2.1 17:36:02 10° NNE 17:39:42 88° ESE 17:43:20 10° SSW
SL-4 R/B 3.4 17:37:05 10° NW 17:39:54 22° N 17:42:47 10° NE
NOAA 11 4.2 17:34:43 10° SSE 17:40:06 66° ENE 17:45:30 10° N
Okean-O 3.6 17:37:51 10° ESE 17:41:31 26° ENE 17:45:11 10° N
ADEOS Rocket 4.0 17:35:35 10° N 17:41:54 57° WNW 17:48:54 10° SSW
FALCON 9 DEB 3.7 17:39:04 10° WSW 17:42:13 48° NNW 17:45:23 10° NE
USA 281 3.4 17:36:06 10° SSE 17:42:39 79° WSW 17:49:15 10° NNW
Cosmos 1346 Rocket 4.1 17:39:51 10° NNE 17:42:54 20° ENE 17:45:55 10° ESE
Envisat 4.4 17:39:51 10° S 17:44:40 43° W 17:49:31 10° NNW
Cosmos 1340 3.0 17:42:57 10° N 17:46:35 42° ENE 17:50:10 10° SSE
Meteor 2-16 Rocket 4.4 17:42:07 10° N 17:48:14 77° E 17:54:20 10° SSE
Cosmos 1486 Rocket 4.4 17:44:02 10° N 17:49:04 41° ENE 17:54:04 10° SE
Cosmos 1315 Rocket 4.1 17:46:44 10° SE 17:49:38 20° E 17:52:34 10° NE
Cosmos 1980 Rocket 3.6 17:48:23 10° SE 17:51:42 16° E 17:53:25 14° ENE
FALCON 9 DEB 4.1 17:49:48 10° W 17:52:51 38° NNW 17:55:34 12° NE
USA 305 3.9 17:49:13 10° NW 17:53:04 31° NNE 17:55:44 16° ENE
SAR-Lupe-1 4.0 17:50:03 10° NNE 17:53:37 62° ESE 17:57:10 10° S
Cosmos 2297 Rocket 2.2 17:48:24 10° NNW 17:54:03 63° ENE 17:59:39 10° SE
Cosmos 1689 Rocket 2.4 17:51:30 10° NNE 17:54:16 41° E 17:57:00 10° S
In-Cosmos 22 Rocket 4.2 17:51:07 10° N 17:56:25 57° ENE 18:01:48 10° SSE
CZ-4B R/B 2.0 17:53:55 10° N 17:57:05 55° WNW 18:00:07 10° SSW
Aureole 3 2.5 17:56:02 10° S 17:59:11 75° E 18:02:10 10° NNE
USA 306 3.8 17:55:40 10° NW 17:59:34 32° NNE 18:01:57 19° ENE
Cosmos 1953 Rocket 3.9 17:55:51 10° NNW 18:00:16 72° W 18:04:41 10° S
Cosmos 2058 Rocket 3.1 17:59:19 10° S 18:03:47 85° E 18:08:19 10° N
Cosmos 1244 Rocket 4.5 17:57:39 10° N 18:03:54 84° E 18:10:11 10° S
CZ-2C R/B 3.6 18:02:15 10° SE 18:07:39 43° ENE 18:12:56 10° N
Cosmos 1455 2.7 18:09:52 10° SSE 18:13:18 35° E 18:16:48 10° NNE
CZ-4C R/B 4.3 18:09:25 10° NNW 18:13:48 18° NNE 18:17:00 14° NE
Cosmos 1992 Rocket 4.1 18:11:23 10° S 18:16:24 52° ESE 18:21:27 10° NNE
Meteor 2-10 Rocket 3.5 18:13:40 10° S 18:18:52 58° E 18:23:55 10° NNE
Cosmos 1076 Rocket 3.9 18:18:30 10° N 18:22:29 38° ENE 18:25:00 20° SE
Cosmos 2278 4.4 18:17:57 10° SSE 18:22:53 31° ESE 18:24:51 25° ENE
Cosmos 2219 3.5 18:20:17 10° NNW 18:26:01 70° WSW 18:31:44 10° SSE
COSMO-SKYMED 1 2.9 18:23:06 10° N 18:27:26 67° WNW 18:31:43 10° SSW
Geosat 4.2 18:29:49 22° NE 18:32:52 48° ESE 18:37:42 10° S
SL-08 ROCKET BODY 4.4 18:27:16 10° N 18:33:25 85° E 18:39:36 10° S
Cosmos 2082 3.7 18:28:20 10° NNW 18:34:01 61° ENE 18:38:04 19° SE
H-2A R/B 2.3 18:28:59 10° SE 18:34:11 50° ENE 18:39:27 10° N
SJ-11-01 4.4 18:34:08 23° SE 18:36:46 49° ENE 18:41:17 10° N
Cosmos 1939 Rocket 3.9 18:33:39 10° S 18:37:28 45° W 18:41:15 10° NNW
ARGOS 3.5 18:36:01 31° ESE 18:37:47 40° ENE 18:42:50 10° N
YAOGAN 1 2.4 18:35:07 10° SSE 18:39:27 80° ENE 18:43:47 10° N
S3M 3.8 18:33:43 10° S 18:39:49 82° E 18:46:01 10° N
Cosmos 2315 Rocket 4.2 18:35:49 10° SSE 18:41:35 43° E 18:47:23 10° NNE
CRYOSAT 2 4.2 18:37:00 10° N 18:41:51 64° E 18:46:40 10° S
Cosmos 1656 4.3 18:37:19 10° SW 18:42:46 55° WNW 18:48:19 10° NNE
GEOS 3 Rocket 4.0 18:41:32 37° E 18:42:59 46° NE 18:48:07 10° NNW
USA 307 3.0 18:38:55 10° NW 18:43:07 54° NNE 18:43:36 50° ENE
SeaSat 1 3.2 18:43:27 33° NE 18:43:27 33° NE 18:47:43 10° N
Cosmos 1408 2.5 18:41:47 10° N 18:45:27 83° W 18:49:02 11° S
Cosmos 1812 Rocket 3.4 18:41:57 10° S 18:46:19 69° E 18:50:40 10° NNE
NOSS 3-4 (A) 4.4 18:40:15 10° NNW 18:46:40 38° NE 18:48:36 33° ENE
NOSS 3-4 (C) 4.4 18:40:22 10° NNW 18:46:45 38° NE 18:48:40 33° ENE
Cosmos 2369 3.6 18:41:04 10° SSW 18:46:45 75° ESE 18:51:18 17° NNE
USA 308 2.9 18:43:49 10° NW 18:48:03 58° NNE 18:48:20 56° NE
Helios 1A Rocket 3.7 18:45:58 10° S 18:49:58 51° W 18:54:00 10° NNW
Cosmos 1892 3.9 18:48:15 10° NNW 18:51:57 44° W 18:55:39 10° SSW
NOSS 3-3 (A) 3.9 18:48:46 10° SW 18:54:33 83° NW 18:59:03 21° NE
NOSS 3-3 (C) 3.9 18:48:53 10° SW 18:54:40 83° NW 18:59:07 21° NE
USA 215 4.2 18:54:35 27° NE 18:56:35 33° NNE 19:02:16 10° NW
CSL-04 Rocket 3.6 18:51:53 10° SSE 18:57:26 79° ENE 19:02:58 10° NNW
Cosmos 2227 Rocket 3.0 18:52:53 10° NW 18:58:20 50° WSW 19:03:45 10° S
MOS 1 Rocket 3.2 18:54:28 10° NNE 18:59:13 84° E 19:04:16 10° SSW
Cosmos 2263 Rocket 3.3 18:57:20 10° N 19:01:10 28° NNE 19:01:10 28° NNE
CZ-4 R/B 2.5 18:59:58 10° S 19:03:41 42° W 19:07:21 10° NNW
ATLAS 2AS CENTAUR R/B 3.3 19:01:44 10° NNW 19:08:47 41° NE 19:09:28 40° NE
BREEZE-M R/B 4.1 19:04:25 10° WNW 19:08:55 62° NNE 19:10:34 49° ENE
Cosmos 2058 4.1 19:06:23 10° NNW 19:10:14 40° W 19:14:04 10° SSW
Cosmos 1825 3.1 19:06:32 10° NNW 19:09:13 42° NNW 19:09:13 42° NNW
Lacrosse 5 3.6 19:07:54 10° NNW 19:11:26 20° NNE 19:11:26 20° NNE
Cosmos 1697 Rocket 3.1 19:06:21 10° SW 19:11:53 60° WNW 19:16:32 15° NNE
Atlas Centaur 2 4.0 19:06:38 10° WSW 19:13:57 33° S 19:16:24 28° SSE
Cosmos 44 Rocket 3.2 19:12:22 10° SW 19:17:07 79° NW 19:17:10 79° NW
Okean-O 4.4 19:13:55 10° SSW 19:17:51 31° W 19:21:50 10° NNW
SL-4 R/B 3.7 19:16:35 10° NW 19:18:22 25° NNW 19:18:22 25° NNW
Timation 1 Rocket 4.3 19:17:53 10° NNW 19:23:57 86° WSW 19:24:54 65° SSE
USA 305 4.2 19:29:05 10° WNW 19:31:55 39° WNW 19:31:55 39° WNW
Cosmos 1980 Rocket 2.3 19:29:23 10° SSW 19:35:00 73° WNW 19:35:17 72° NW
BREEZE-M TANK 3.9 19:36:16 10° WNW 19:39:30 37° W 19:39:30 37° W
CZ-4C R/B 3.7 19:57:19 10° NNW 20:02:10 39° N 20:02:10 39° N
Milstar 3 4.5 20:03:51 10° WSW 20:07:37 20° SSW 20:07:37 20° SSW
H-2A R/B 4.3 20:09:36 10° SW 20:13:50 23° W 20:18:08 10° NW
USA 215 4.5 20:41:56 35° NW 20:41:56 35° NW 20:45:29 10° NW
Cosmos 2263 Rocket 4.4 20:41:03 10° NW 20:42:52 20° NW 20:42:52 20° NW
ATLAS 2AS CENTAUR R/B 4.2 20:52:52 10° NW 20:56:55 33° WNW 20:56:55 33° WNW
